Danbury, CT

8:22 PM EDT on October 19, 2017 (GMT -0400)
Danbury Municipal

Weather History for KDXR - July, 2013

Change the Weather History Date:

Wednesday, July 24, 2013

  Actual Average Record
Temperature  
Mean Temperature 72 °F -  
Max Temperature 80 °F 82 °F 93 °F (1999)
Min Temperature 63 °F 60 °F 46 °F (1985)
Cooling Degree Days 6    
Growing Degree Days 22 (Base 50)    
Moisture  
Dew Point 64 °F    
Average Humidity 80    
Maximum Humidity 96    
Minimum Humidity 56    
Precipitation  
Precipitation 0.01 in - - ()
Sea Level Pressure  
Sea Level Pressure 29.71 in    
Wind  
Wind Speed 3 mph (NW)    
Max Wind Speed 10 mph    
Max Gust Speed 18 mph    
Visibility 6 miles    
Events Fog    
Averages and records for this station are not official NWS values.
T = Trace of Precipitation, MM = Missing Value Source: NWS Daily Summary

Daily Weather History Graph

Daily Weather History Graph

Search for Another Location

Airport or City:

Trip Planner

Search our weather history database for the weather conditions in past years. The results will help you decide how hot, cold, wet, or windy it might be!

Date:

Astronomy

Jul. 24, 2013 Rise Set
Actual Time 5:41 AM EDT 8:18 PM EDT
Civil Twilight 5:09 AM EDT 8:50 PM EDT
Nautical Twilight 4:29 AM EDT 9:30 PM EDT
Astronomical Twilight 3:44 AM EDT 10:15 PM EDT
Moon 9:20 PM EDT (7/24) 8:00 AM EDT (7/24)
Length of Visible Light 15h 41m
Length of Day
14h 37m
Waning Gibbous, 95% of the Moon is Illuminated
Jul 24
Waning Gibbous
Jul 29
Last Quarter
Aug 6
New
Aug 14
First Quarter
Aug 20
Full

Hourly Weather History & Observations

Time (EDT) Temp. Dew Point Humidity Pressure Visibility Wind Dir Wind Speed Gust Speed Precip Events Conditions
12:53 AM 71.1 °F 68.0 °F 90% 29.63 in 6.0 mi West 3.5 mph - N/A   Mostly Cloudy
1:17 AM 71.6 °F 68.0 °F 88% 29.65 in 5.0 mi SW 4.6 mph - N/A   Partly Cloudy
1:32 AM 71.6 °F 68.0 °F 88% 29.65 in 2.0 mi Calm Calm - N/A   Mostly Cloudy
1:44 AM 71.6 °F 69.8 °F 94% 29.65 in 2.5 mi Calm Calm - N/A   Overcast
1:51 AM 71.6 °F 69.8 °F 94% 29.65 in 4.0 mi Calm Calm - N/A   Overcast
1:53 AM 71.1 °F 69.1 °F 93% 29.63 in 4.0 mi Calm Calm - N/A   Overcast
2:10 AM 71.6 °F 68.0 °F 88% 29.65 in 2.5 mi Calm Calm - N/A   Overcast
2:19 AM 69.8 °F 68.0 °F 94% 29.65 in 1.0 mi WSW 3.5 mph - N/A   Overcast
2:36 AM 69.8 °F 68.0 °F 94% 29.64 in 0.2 mi SW 3.5 mph - N/A Fog Fog
2:53 AM 70.0 °F 68.0 °F 93% 29.63 in 0.5 mi WSW 3.5 mph - N/A Fog Fog
3:14 AM 69.8 °F 68.0 °F 94% 29.65 in 1.2 mi Calm Calm - N/A   Overcast
3:34 AM 69.8 °F 66.2 °F 88% 29.64 in 3.0 mi Calm Calm - N/A   Overcast
3:39 AM 69.8 °F 66.2 °F 88% 29.64 in 1.5 mi Calm Calm - N/A   Overcast
3:53 AM 69.1 °F 66.9 °F 93% 29.63 in 0.2 mi Calm Calm - N/A Fog Fog
4:25 AM 69.8 °F 66.2 °F 88% 29.64 in 1.2 mi Calm Calm - N/A   Mostly Cloudy
4:28 AM 68.0 °F 66.2 °F 94% 29.64 in 3.0 mi Calm Calm - N/A   Mostly Cloudy
4:39 AM 68.0 °F 66.2 °F 94% 29.65 in 1.5 mi Calm Calm - N/A   Mostly Cloudy
4:46 AM 68.0 °F 66.2 °F 94% 29.65 in 0.8 mi SW 4.6 mph - N/A   Mist
4:53 AM 68.0 °F 66.9 °F 96% 29.64 in 0.8 mi WSW 3.5 mph - N/A   Mist
5:01 AM 68.0 °F 66.2 °F 94% 29.65 in 1.2 mi Calm Calm - 0.01 in   Overcast
5:09 AM 69.8 °F 66.2 °F 88% 29.65 in 3.0 mi Calm Calm - 0.01 in   Overcast
5:39 AM 69.8 °F 66.2 °F 88% 29.65 in 8.0 mi Calm Calm - 0.01 in   Scattered Clouds
5:53 AM 68.0 °F 66.0 °F 93% 29.64 in 6.0 mi Calm Calm - 0.01 in   Partly Cloudy
6:53 AM 69.1 °F 66.9 °F 93% 29.66 in 9.0 mi Calm Calm - N/A   Clear
7:53 AM 73.0 °F 66.9 °F 81% 29.68 in 10.0 mi WNW 3.5 mph - N/A   Clear
8:53 AM 73.0 °F 66.0 °F 79% 29.70 in 10.0 mi NNW 3.5 mph - N/A   Mostly Cloudy
9:53 AM 75.0 °F 66.0 °F 73% 29.73 in 10.0 mi Variable 5.8 mph - N/A   Mostly Cloudy
10:53 AM 78.1 °F 66.0 °F 66% 29.73 in 10.0 mi NW 6.9 mph - N/A   Partly Cloudy
11:53 AM 79.0 °F 64.9 °F 62% 29.75 in 10.0 mi NNW 6.9 mph - N/A   Partly Cloudy
12:53 PM 78.1 °F 64.9 °F 64% 29.75 in 10.0 mi NNW 9.2 mph - N/A   Overcast
1:03 PM 75.2 °F 64.4 °F 69% 29.77 in 10.0 mi NW 5.8 mph 18.4 mph N/A   Overcast
1:53 PM 78.1 °F 64.0 °F 62% 29.77 in 10.0 mi NNW 9.2 mph - N/A   Overcast
2:53 PM 78.1 °F 62.1 °F 58% 29.79 in 10.0 mi NNW 10.4 mph - N/A   Clear
3:53 PM 77.0 °F 61.0 °F 58% 29.79 in 10.0 mi WNW 6.9 mph - N/A   Mostly Cloudy
4:53 PM 78.1 °F 61.0 °F 56% 29.80 in 10.0 mi North 6.9 mph - N/A   Overcast
5:53 PM 75.9 °F 60.1 °F 58% 29.80 in 10.0 mi NNE 8.1 mph - N/A   Partly Cloudy
6:53 PM 73.9 °F 57.9 °F 57% 29.83 in 10.0 mi North 10.4 mph - N/A   Scattered Clouds
7:53 PM 71.1 °F 55.0 °F 57% 29.87 in 10.0 mi North 9.2 mph - N/A   Overcast
8:53 PM 68.0 °F 52.0 °F 56% 29.90 in 10.0 mi North 9.2 mph - N/A   Partly Cloudy
9:53 PM 66.0 °F 52.0 °F 60% 29.94 in 10.0 mi North 9.2 mph - N/A   Overcast
10:53 PM 64.0 °F 50.0 °F 60% 29.95 in 10.0 mi North 6.9 mph - N/A   Mostly Cloudy
11:53 PM 63.0 °F 50.0 °F 63% 29.96 in 10.0 mi North 8.1 mph - N/A   Mostly Cloudy